Estación Meteorológica Peña el Pijo (Robertgarden) [ 07/23/19 00:56:48 CEST ]

Fecha Hora Presion(HPa) Temp (°C) Humedad % Rocio (°C) Viento ( m/s) Direccion Lluvia 1Hora(mm) Lluvia 24H(mm) LLuvia Total(mm)
2019-Jul-05 01:09:10 1012.000 - - - - NNW     342.62
2019-Jul-05 02:09:07 1012.300 - - - - NNW     342.62
2019-Jul-05 03:09:42 1011.900 - - - - NNW     342.62
2019-Jul-05 04:11:56 1011.700 - - - - NNW     342.62
2019-Jul-05 05:09:05 1011.300 - - - - NNW     342.62
2019-Jul-05 06:09:14 1011.100 - - - - NNW     342.62
2019-Jul-05 07:09:33 1011.300 - - - - NNW     342.62
2019-Jul-05 08:09:06 1011.100 - - - - NNW     342.62
2019-Jul-05 09:09:17 1011.300 - - - - NNW     342.62
2019-Jul-05 10:08:53 1011.400 - - - - NNW     342.62
2019-Jul-05 11:08:49 1011.600 - - - - NNW     342.62
2019-Jul-05 12:08:53 1011.300 - - - - NNW     342.62
2019-Jul-05 13:09:02 1011.200 - - - - NNW     342.62
2019-Jul-05 14:09:14 1010.800 - - - - NNW     342.62
2019-Jul-05 15:09:10 1010.400 - - - - NNW     342.62
2019-Jul-05 16:09:07 1010.000 - - - - NNW     342.62
2019-Jul-05 17:09:17 1009.700 - - - - NNW     342.62
2019-Jul-05 18:09:27 1009.500 - - - - NNW     342.62
2019-Jul-05 19:09:23 1009.400 - - - - NNW     342.62
2019-Jul-05 20:09:25 1009.600 - - - - NNW     342.62
2019-Jul-05 21:08:54 1010.100 - - - - NNW     342.62
2019-Jul-05 22:08:46 1010.700 - - - - NNW     342.62
2019-Jul-05 23:09:01 1011.500 - - - - NNW     342.62

Temperatura Máxima:    Temperatura Mínima:
Presión Máxima:1012.300 Hpa    Presión Mínima:1009.400 Hpa


Volver